This demonstration page uses our WeatherBlox Daily Observations layout. Learn more.

Left ArrowRight Arrow

34.74481, -87.66753

Hourly Observations for February 23, 2020

Temp ( °F °C ) Dew Point ( °F °C ) Humidity (%) Winds ( mph kmh ) Pressure ( in mb ) Visibility ( mi km ) Precip ( " mm )
12:53 am 00:53 Clear 36 2.2 32 0 86 86 SE 3 6 30.27 1025 10 16 0.00 0.00
1:53 am 01:53 Partly Cloudy 37 2.8 30 -1.1 76 76 Calm 30.26 1025 10 16 0.00 0.00
2:53 am 02:53 Mostly Cloudy 36 2.2 30 -1.1 79 79 ESE 3 6 30.25 1024 10 16 0.00 0.00
3:53 am 03:53 Mostly Cloudy 37 2.8 31 -0.6 79 79 ESE 3 6 30.24 1024 10 16 0.00 0.00
4:53 am 04:53 Partly Cloudy 39 3.9 30 -1.1 70 70 Calm 30.25 1024 10 16 0.00 0.00
5:53 am 05:53 Partly Cloudy 39 3.9 33 0.6 79 79 Calm 30.26 1025 10 16 0.00 0.00
6:53 am 06:53 Cloudy 40 4.4 35 1.7 83 83 Calm 30.26 1025 10 16 0.00 0.00
7:53 am 07:53 Mostly Cloudy 43 6.1 36 2.2 76 76 Calm 30.27 1025 10 16 0.00 0.00
8:53 am 08:53 Partly Cloudy 47 8.3 33 0.6 59 59 SSE 5 7 30.27 1025 10 16 0.00 0.00
9:53 am 09:53 Mostly Sunny 51 10.6 32 0 48 48 S 8 13 30.25 1024 10 16 0.00 0.00
10:53 am 10:53 Cloudy 55 12.8 32 0 42 42 SSW 6 9 30.24 1024 10 16 0.00 0.00
11:53 am 11:53 Cloudy 56 13.3 33 0.6 42 42 SSW 10 17 30.22 1023 10 16 0.00 0.00
12:53 pm 12:53 Mostly Cloudy 57 13.9 32 0 39 39 SSE 5 7 30.18 1022 10 16 0.00 0.00
1:53 pm 13:53 Cloudy 57 13.9 33 0.6 41 41 SSW 7 11 30.16 1022 10 16 0.00 0.00
2:53 pm 14:53 Cloudy 57 13.9 34 1.1 42 42 SW 8 13 30.16 1022 10 16 0.00 0.00
3:53 pm 15:53 Cloudy 56 13.3 35 1.7 46 46 WSW 10 17 30.16 1021 10 16 0.00 0.00
4:53 pm 16:53 Cloudy 53 11.7 39 3.9 59 59 WSW 5 7 30.15 1021 10 16 0.00 0.00
5:53 pm 17:53 Cloudy 51 10.6 40 4.4 66 66 WSW 6 9 30.16 1022 10 16 0.00 0.00
6:53 pm 18:53 Cloudy with Light Rain 50 10 42 5.6 74 74 Calm 30.16 1022 10 16 0.01 0.25
7:53 pm 19:53 Cloudy 48 8.9 44 6.7 86 86 ESE 3 6 30.15 1021 10 16 0.00 0.00
8:53 pm 20:53 Cloudy 47 8.3 44 6.7 90 90 SE 3 6 30.14 1021 10 16 0.00 0.00
9:53 pm 21:53 Cloudy 48 8.9 43 6.1 83 83 SE 6 9 30.11 1020 10 16 0.00 0.00
10:53 pm 22:53 Cloudy with Light Rain 48 8.9 43 6.1 83 83 SSE 5 7 30.09 1019 10 16 0.00 0.00
11:53 pm 23:53 Cloudy 48 8.9 43 6.1 83 83 SSE 5 7 30.06 1018 10 16 0.00 0.00

Powered by AerisWeather